Regional Weather Roundup
Issued by NWS

Home | Current Version | Previous Version | Text Only | Print | Product List | Glossary Off
Versions: 1 2 3 4 5 6 7 8 9 10 11 12 13 14 15 16 17 18 19 20 21 22 23 24 25 26 27 28 29 30 31 32 33 34 35 36 37 38 39 40 41 42 43 44 45 46 47 48 49 50

000
ASUS43 KLMK 251510
RWRKY
KENTUCKY REGIONAL WEATHER ROUNDUP
NATIONAL WEATHER SERVICE LOUISVILLE KY
1100 AM EDT TUE JUL 25 2017

NOTE "FAIR" INDICATES FEW OR NO CLOUDS BELOW 12,000 FEET
WITH NO SIGNIFICANT WEATHER AND/OR OBSTRUCTIONS TO VISIBILITY.

KYZ001>023-026-027-061>063-070>075-251600-
WESTERN AND SOUTH CENTRAL KENTUCKY

CITY           SKY/WX    TMP DP  RH WIND       PRES   REMARKS
PADUCAH        MOSUNNY   86  76  71 CALM      30.07F HX  96
HENDERSON      SUNNY     79  71  76 E8        30.12F
OWENSBORO      MOSUNNY   79  69  71 E9        30.12F
HOPKINSVILLE   SUNNY     86  76  72 CALM      30.10S HX  95
BOWLING GREEN  SUNNY     83  74  74 NE5       30.12S
GLASGOW        PTSUNNY   80  72  75 NE6       30.13S
$$

KYZ024-025-028>034-038-045-046-053-251600-
NORTH CENTRAL KENTUCKY

CITY           SKY/WX    TMP DP  RH WIND       PRES   REMARKS
LOUISVILLE/SDF MOSUNNY   78  63  59 E5        30.16S
LOUISVILLE/LOU SUNNY     77  65  66 E5        30.16F
FORT KNOX      SUNNY     76  65  68 E9        30.14S
$$

KYZ035>037-039>044-047>052-055>060-089>105-251600-
NORTHEAST KENTUCKY

CITY           SKY/WX    TMP DP  RH WIND       PRES   REMARKS
LEXINGTON      SUNNY     76  61  59 E9        30.17F
COVINGTON      MOSUNNY   73  59  61 E6        30.20R
FRANKFORT      SUNNY     76  61  59 E8        30.16S
$$

KYZ054-064>069-076>088-106>120-251600-
SOUTHEAST KENTUCKY

CITY           SKY/WX    TMP DP  RH WIND       PRES   REMARKS
JACKSON        SUNNY     73  65  75 VRB5      30.19S
LONDON         CLOUDY    75  67  76 N5        30.16S
SOMERSET       CLOUDY    73  70  88 E3        30.16S
MIDDLESBORO    MOSUNNY   79  72  81 CALM      30.15F
MONTICELLO     SUNNY     79  73  82 N16       30.16S
$$




USA.gov is the U.S. government's official web portal to all federal, state and local government web resources and services.